Regional Weather Roundup
Issued by NWS Newport/Morehead, NC

Current Version | Previous Version | Text Only | Print | Product List | Glossary On
Versions: 1 2 3 4 5 6 7 8 9 10 11 12 13 14 15 16 17 18 19 20 21 22 23 24 25 26 27 28 29 30 31 32 33 34 35 36 37 38 39 40 41 42 43 44 45 46 47 48 49 50
000
ASUS42 KMHX 222025
RWRMHX
WEATHER ROUNDUP FOR EASTERN NORTH CAROLINA
NATIONAL WEATHER SERVICE NEWPORT/MOREHEAD CITY NC
400 PM EDT SAT JUL 22 2017

NOTE: "FAIR" INDICATES FEW OR NO CLOUDS BELOW 12,000 FEET
WITH NO SIGNIFICANT WEATHER AND/OR OBSTRUCTIONS TO VISIBILITY

NCZ015>017-031-032-045>047-102-103-222100-
NORTH COAST

CITY           SKY/WX    TMP DP  RH WIND       PRES   REMARKS
EDENTON        SUNNY     94  79  60 SW12      29.88S HX 111
ELIZABETH CITY MOSUNNY   92  80  68 SW14      29.86F HX 110
KITTY HAWK     CLEAR     92  75  57 SW8G21    29.86F HX 104
MANTEO         PTSUNNY   92  78  64 SW17      29.88F HX 107

$$

NCZ045>047-081-094-103-104-222100-
CENTRAL COAST

CITY           SKY/WX    TMP DP  RH WIND       PRES   REMARKS
FRISCO         SUNNY     84  74  71 SW13      29.93F

$$

NCZ095-097-098-100-101-222100-
SOUTHERN COAST

CITY           SKY/WX    TMP DP  RH WIND       PRES   REMARKS
BEAUFORT       SUNNY     86  79  79 SW18G29   29.94F
CEDAR ISLAND   NOT AVBL
JACKSONVILLE   MOSUNNY   91  78  65 S14       29.92F HX 106
PINEY ISLAND   CLEAR    N/A N/A N/A SW20G26   29.92F
WILMINGTON     SUNNY     91  72  53 SW12      29.94F


$$

NCZ011>013-027>030-043-044-078>080-089-090>093-098-222100-
COASTAL PLAIN

CITY           SKY/WX    TMP DP  RH WIND       PRES   REMARKS
AHOSKIE          N/A     92  77  61 S7G16     29.85F HX 106
CLINTON        MOSUNNY   93  77  59 SW8       29.92F HX 107
ELIZABETHTOWN  NOT AVBL
GOLDSBORO      SUNNY     96  74  49 SW18      29.89F HX 107
GREENVILLE     MOSUNNY   95  75  52 SW13      29.90F HAZE    HX 107
HAVELOCK       MOSUNNY   90  73  57 S13       29.93F
KENANSVILLE    PTSUNNY   93  73  52 SW7       29.91F HX 102
KINSTON        MOSUNNY   95  72  46 W13G20    29.91F HX 103
NEW BERN       MOSUNNY   93  77  59 SW13      29.92F HX 107
RICHLANDS      MOSUNNY   94  75  54 S15       29.92F HX 105
ROCKY MOUNT    MOSUNNY   95  76  53 SW15      29.88F HX 108
WASHINGTON     SUNNY     92  76  58 SW9       29.89F HX 104
WHITEVILLE     MOSUNNY   93  73  51 SW5       29.93F HX 102

$$

AMZ130-135-150-152-154-156-158-170-250-252-270-ANZ085-086-088-633-658-670-222100-
MARINE OBSERVATIONS

STATION/POSITION TIME  TEMP    WIND        PRES    WAVE   SWELL
                       AIR SEA DIR/SP/G            HT/PER HT/PER
                 (UTC) (F)     (DEG/KT/KT) (MB)    (FT/S) (FT/S)
CHESAPEAKE LIGHT NOT AVBL
64 E VA BEACH    1950   82 81  230/ 14/ 16 1011.6    4/ 6   2/ 9
DUCK             2000   90 59  230/ 13/ 17 1011.0
2 E DUCK         2000      63                N/A     2/13
OREGON INLET     2000   86 86  200/ 23/ 25 1011.9
13E OREGON INLT  1948      77                N/A     4/ 5   2/ 9
HATTERAS CG      2000   83 79  220/ 14/ 19 1013.5
DIAMOND BUOY     1950   83 82  230/ 19/ 23 1013.5    4/ 8   2/ 8
CAPE LOOKOUT     2000   84     210/ 13/ 18 1013.7
BEAUFORT LAB     2000   84 82  210/ 11/ 16 1013.3
30 SE NEW RVR IN 2008   81 82  230/ 14/ 17 1014.5
30 SE NEW RVR IN 2013      82                N/A     4/ 9
27 SE WRIGHTSVLE 2008   83 82  210/ 14/ 17 1014.2
5 SE WRIGHTSVLE  2008   81 79  200/ 10/ 16 1014.0
225 S CAPE HAT   1950   84 84  230/ 14/ 16 1017.6    4/ 9   3/ 9
41 SE CHARLESTON 2010   83 85  200/  8/ 12 1014.6

$$




USA.gov is the U.S. government's official web portal to all federal, state and local government web resources and services.